STARLINK-2275 (48600 NORAD) Tracking and Keplerian Element Data

This shows tracking and keplerian element data for the satellite.

Feedback or suggestion? Click here.




ElementValue
Catalog48600
NameSTARLINK-2275
Epoch Orbit1331
Epoch Day215.09198253
Epoch Year2021
RAAN111.6633
Inclination53.0504
Eccentricity0.0002184
Argument of Perigee81.3926
Mean Anonmoly278.731
Mean Motion15.06396893
Decay Rate8.43E-06
L11 48600U 21041AZ 21215.09198253 .00000843 00000-0 75511-4 0 9992
L22 48600 53.0504 111.6633 0002184 81.3926 278.7310 15.06396893 13318

Live tracking and technical data element details for STARLINK-2275 (NORAD 48600). STARLINK-2275 can be tracked NOW for your location showing map with azimuth and elevation plus other details from your city location.

Track the satellite on the map from your city or location and see movement details for azimuth, elevation, latitude, longitude, range, height, and movement on the map or in text.







IsCatalogInMostPopularTable: catalog: 48600, numindb: 19
Update: records affected: 1



GetName: 48600 STARLINK-2275

Hit Count: updated at: Tue, 03 Aug 2021 20:18:55 GMT